Regional Weather Roundup
Issued by NWS

Home | Current Version | Previous Version | Text Only | Print | Product List | Glossary On
Versions: 1 2 3 4 5 6 7 8 9 10 11 12 13 14 15 16 17 18 19 20 21 22 23 24 25 26 27 28 29 30 31 32 33 34 35 36 37 38 39 40 41 42 43 44 45 46 47 48 49 50
000
ASUS43 KTOP 280708
RWRKS

WEATHER ROUNDUP FOR KANSAS
NATIONAL WEATHER SERVICE GOODLAND KS
200 AM CDT FRI JUL 28 2017

NOTE:  "FAIR" INDICATES FEW OR NO CLOUDS BELOW 12,000 FEET WITH NO
SIGNIFICANT WEATHER AND/OR OBSTRUCTIONS TO VISIBILITY.

KSZ001>006-013>018-027>032-041>047-280800-
NORTHWEST KANSAS

CITY           SKY/WX    TMP DP  RH WIND       PRES   REMARKS
GOODLAND       CLOUDY    66  64  93 E6        30.12R
HAYS           CLOUDY    67  63  87 NE7       30.04S
HILL CITY      CLOUDY    66  62  87 NE3       30.06S
RUSSELL        CLEAR     68  64  87 NE7       30.01F
$$

KSZ061>065-074>080-084>089-280800-
SOUTHWEST KANSAS

CITY           SKY/WX    TMP DP  RH WIND       PRES   REMARKS
DODGE CITY     CLOUDY    69  65  86 E5        30.05S
ELKHART          N/A     67  57  70 E3          N/A
GARDEN CITY    MOCLDY    70  66  87 NE6       30.06S
GREAT BEND     CLOUDY    72  65  78 NE8       30.02S
LIBERAL        PTCLDY    71  68  90 NE3       30.06F
PRATT          PTCLDY    69  64  82 CALM      30.01F
$$

KSZ066>073-081>083-090>101-280800-
SOUTHEAST KANSAS

CITY           SKY/WX    TMP DP  RH WIND       PRES   REMARKS
CHANUTE        CLOUDY    79  74  84 NE6       29.93F
COFFEYVILLE    CLOUDY    77  76  96 NE5       29.91S
HUTCHINSON     CLEAR     73  67  81 NE8       29.98S
MEDICINE LODGE   N/A     73  67  81 NE5       29.97F
NEWTON         PTCLDY    72  69  90 NE7       29.99S
PARSONS        CLOUDY    77  75  93 NE3       29.92F
WICHITA INTL   CLOUDY    78  71  79 NE9       29.96S
WICHITA JABRA  CLEAR     74  71  91 NE7       29.96S
WICHITA MCCONL CLOUDY    77  69  77 NE9       29.96S
WINFIELD       CLEAR     78  72  81 N7        29.95S
$$

KSZ007>012-019>026-033>040-048>060-102>105-280800-
NORTHEAST KANSAS

CITY           SKY/WX    TMP DP  RH WIND       PRES   REMARKS
CONCORDIA      CLEAR     67  65  93 N5        30.01F
EMPORIA        CLOUDY    73  69  87 NE9       29.96F
LAWRENCE       PTCLDY    73  70  90 CALM      29.95S
MANHATTAN      CLEAR     71  65  81 CALM      29.97F
MARYSVILLE     CLEAR     64  64 100 CALM      29.99F
OLATHE IND     CLEAR     73  71  93 CALM      29.96S
OLATHE EXE     CLEAR     74  72  93 CALM      29.95F
SALINA         CLOUDY    76  66  71 NE7       29.98F
TOPEKA BILLARD PTCLDY    73  69  87 CALM      29.96S
TOPEKA FORBES  PTCLDY    74  69  85 N5        29.96F
$$



USA.gov is the U.S. government's official web portal to all federal, state and local government web resources and services.